(155102) = 2005 SB219

Discovered at Mount Lemmon on 2005-09-30 by Mt. Lemmon Survey.

Orbit

Orbit type: Main Belt

Note: WebGL enabled browser required.

epoch2024-03-31.0
epoch JD2460400.5
perihelion date2022-11-28.39326
perihelion JD2459911.89327
argument of perihelion (°)150.71661
ascending node (°)227.13326
inclination (°)10.58757
eccentricity0.2062482
perihelion distance (AU)2.1157888
Tisserand w.r.t. Jupiter3.3
ΔV w.r.t. Earth (km/sec)9.7
semimajor axis (AU)2.6655545
mean anomaly (°)110.65784
mean daily motion (°/day)0.22647630
aphelion distance (AU)3.215
period (years)4.35
P-vector [x]0.94575954
P-vector [y]0.25067884
P-vector [z]0.20663739
Q-vector [x]-0.29564039
Q-vector [y]0.92779608
Q-vector [z]0.22757680
absolute magnitude15.37
phase slope0.15
uncertainty0
referenceE2024-GI3
observations used1362
oppositions17
arc length (days)8707
first opposition used2000
last opposition used2024
residual rms (arc-secs)0.57
perturbers coarse indicatorM-v
perturbers precise indicator003Ek
first observation date used2000-06-10.0
last observation date used2024-04-12.0
computer nameMPCLINUX
JD of orbit computation2456966.743589
perihelion JD uncertainty (days)6.9325E-05
argument of perihelion uncertainty (°)3.2462E-05
ascending node uncertainty (°)2.8261E-05
inclination uncertainty (°)5.8432E-06
eccentricity uncertainty 5.0330E-08
perihelion distance uncertainty (AU)1.4222E-07
Minimum Orbit Intersection Distances (in AU)
for orbit epoch: 2460400.5, reference: E2024-GI3
Mercury1.77924
Venus1.40054
Earth1.12571
Mars0.69201
Jupiter2.26697
Saturn6.38377
Uranus15.3231
Neptune27.4502

Observations

1384 total observations over interval: 2000 06 10.36844 – 2024 03 02.183986
These data are available for download (format description).

Date (UT) J2000 RA J2000 Dec Magn Location Ref
2000 06 10.36844 21 12 04.65 -01 48 34.5 19.4   704 – Lincoln Laboratory ETS, New Mexico MPS 150795
2000 06 10.38094 21 12 04.81 -01 48 28.8 19.4   704 – Lincoln Laboratory ETS, New Mexico MPS 150795
2000 06 10.39343 21 12 04.98 -01 48 22.9 19.5   704 – Lincoln Laboratory ETS, New Mexico MPS 150795
2000 06 10.40589 21 12 05.03 -01 48 16.4 19.9   704 – Lincoln Laboratory ETS, New Mexico MPS 150795
2000 07 04.27678 21 10 08.85 +00 40 32.6 18.9 R 699 – Lowell Observatory-LONEOS MPS 150795
2000 07 04.29526 21 10 08.37 +00 40 38.7   699 – Lowell Observatory-LONEOS MPS 150795
2000 07 04.31361 21 10 07.83 +00 40 42.6   699 – Lowell Observatory-LONEOS MPS 150795
2000 07 04.33197 21 10 07.41 +00 40 48.6   699 – Lowell Observatory-LONEOS MPS 150795
2000 08 03.29430 20 49 46.64 +01 18 47.4 18.8   704 – Lincoln Laboratory ETS, New Mexico MPS 150795
2000 08 03.32272 20 49 45.07 +01 18 44.0 19.6   704 – Lincoln Laboratory ETS, New Mexico MPS 150795
2000 08 03.35241 20 49 43.55 +01 18 39.8 19.3   704 – Lincoln Laboratory ETS, New Mexico MPS 150795
2000 09 23.11009 20 25 19.44 -03 15 49.9 18.5   704 – Lincoln Laboratory ETS, New Mexico MPS 150795
2000 09 23.12512 20 25 19.53 -03 15 56.4 18.7   704 – Lincoln Laboratory ETS, New Mexico MPS 150795
2000 09 23.13963 20 25 19.69 -03 16 01.7 18.2   704 – Lincoln Laboratory ETS, New Mexico MPS 150795
2000 09 23.15530 20 25 19.86 -03 16 07.3 18.7   704 – Lincoln Laboratory ETS, New Mexico MPS 150795
2000 09 23.16980 20 25 20.04 -03 16 12.3 18.5   704 – Lincoln Laboratory ETS, New Mexico MPS 150795
2001 11 18.60451 08 15 16.85 +08 26 32.9 20.6   608 – Haleakala-AMOS MPS 150795
2001 11 18.61505 08 15 16.96 +08 26 28.9 20.7   608 – Haleakala-AMOS MPS 150795
2001 11 18.62599 08 15 17.08 +08 26 24.0 20.7   608 – Haleakala-AMOS MPS 150795
2001 12 19.39479 08 08 23.14 +05 45 13.0 19.8   704 – Lincoln Laboratory ETS, New Mexico MPS 150795
2001 12 19.41048 08 08 22.47 +05 45 10.3 19.5   704 – Lincoln Laboratory ETS, New Mexico MPS 150795
2001 12 19.42616 08 08 21.87 +05 45 07.2 19.3   704 – Lincoln Laboratory ETS, New Mexico MPS 150795
2001 12 19.44250 08 08 21.21 +05 45 04.4 19.4   704 – Lincoln Laboratory ETS, New Mexico MPS 150795
2004 07 16.22626 17 40 06.10 -11 11 37.6 19.7   704 – Lincoln Laboratory ETS, New Mexico MPS 152166
2004 07 16.23709 17 40 05.64 -11 11 36.7 19.7   704 – Lincoln Laboratory ETS, New Mexico MPS 152166
2004 07 16.24675 17 40 05.20 -11 11 37.4 19.8   704 – Lincoln Laboratory ETS, New Mexico MPS 152166
2004 07 16.25633 17 40 04.80 -11 11 36.4 19.8   704 – Lincoln Laboratory ETS, New Mexico MPS 152166
2005 09 13.41781 04 45 21.21 +22 49 13.8 19.6   704 – Lincoln Laboratory ETS, New Mexico MPS 150795
2005 09 13.42941 04 45 21.92 +22 49 12.0 20.0   704 – Lincoln Laboratory ETS, New Mexico MPS 150795
2005 09 13.44100 04 45 22.74 +22 49 10.8 19.9   704 – Lincoln Laboratory ETS, New Mexico MPS 150795
2005 09 13.45258 04 45 23.43 +22 49 09.1 19.9   704 – Lincoln Laboratory ETS, New Mexico MPS 150795
2005 09 30.44531 05 01 15.67 +21 52 36.4 18.7 V G96 – Mt. Lemmon Survey MPS 144407
2005 09 30.45087 05 01 15.88 +21 52 35.1 18.6 V G96 – Mt. Lemmon Survey MPS 144407
2005 09 30.45640 05 01 16.10 +21 52 33.6 18.5 V G96 – Mt. Lemmon Survey MPS 144407
2005 09 30.46194 05 01 16.35 +21 52 32.2 18.6 V G96 – Mt. Lemmon Survey MPS 144407
2005 10 01.37561 05 01 53.79 +21 48 33.0 19.6   704 – Lincoln Laboratory ETS, New Mexico MPS 144407
2005 10 01.38652 05 01 54.16 +21 48 29.5 19.7   704 – Lincoln Laboratory ETS, New Mexico MPS 144407
2005 10 01.39722 05 01 54.53 +21 48 27.3 20.1   704 – Lincoln Laboratory ETS, New Mexico MPS 144407
2005 10 05.32759 05 04 16.87 +21 30 12.8 20.2   704 – Lincoln Laboratory ETS, New Mexico MPS 144407
2005 10 05.33847 05 04 17.09 +21 30 10.3 19.5   704 – Lincoln Laboratory ETS, New Mexico MPS 144407
2005 10 05.34935 05 04 17.49 +21 30 05.9 19.9   704 – Lincoln Laboratory ETS, New Mexico MPS 144407
2005 10 05.36022 05 04 17.77 +21 30 03.1 19.2   704 – Lincoln Laboratory ETS, New Mexico MPS 144407
2005 10 28.31870 05 07 40.89 +19 12 01.0 19.2   704 – Lincoln Laboratory ETS, New Mexico MPS 149651
2005 10 28.33096 05 07 40.69 +19 11 56.0 19.3   704 – Lincoln Laboratory ETS, New Mexico MPS 149651
2005 10 28.34302 05 07 40.49 +19 11 51.2 19.5   704 – Lincoln Laboratory ETS, New Mexico MPS 149651
2005 10 28.35799 05 07 40.17 +19 11 44.5 19.6   704 – Lincoln Laboratory ETS, New Mexico MPS 149651
2005 10 28.36995 05 07 39.97 +19 11 39.1 19.3   704 – Lincoln Laboratory ETS, New Mexico MPS 149651
2005 11 01.42045 05 06 20.73 +18 42 30.1 18.0 V G96 – Mt. Lemmon Survey MPS 149651
2005 11 01.42877 05 06 20.52 +18 42 26.6 18.0 V G96 – Mt. Lemmon Survey MPS 149651
2005 11 01.43711 05 06 20.30 +18 42 22.8 17.9 V G96 – Mt. Lemmon Survey MPS 149651
2005 11 01.44534 05 06 20.08 +18 42 19.1 17.9 V G96 – Mt. Lemmon Survey MPS 149651
2005 11 06.32748 05 04 01.52 +18 05 47.3 18.4   704 – Lincoln Laboratory ETS, New Mexico MPS 150795
2005 11 06.34054 05 04 01.04 +18 05 41.6 18.5   704 – Lincoln Laboratory ETS, New Mexico MPS 150795
2005 11 06.35282 05 04 00.63 +18 05 35.9 18.7   704 – Lincoln Laboratory ETS, New Mexico MPS 150795
2005 11 06.36543 05 04 00.12 +18 05 30.9 18.8   704 – Lincoln Laboratory ETS, New Mexico MPS 150795
2005 11 06.37777 05 03 59.73 +18 05 24.6 18.7   704 – Lincoln Laboratory ETS, New Mexico MPS 150795
2005 11 21.40591 04 52 50.70 +16 08 19.3 17.8 V 703 – Catalina Sky Survey MPS 150795
2005 11 21.41236 04 52 50.30 +16 08 15.9 17.4 V 703 – Catalina Sky Survey MPS 150795
2005 11 21.41884 04 52 49.98 +16 08 12.6 17.7 V 703 – Catalina Sky Survey MPS 150795
2005 11 21.42535 04 52 49.62 +16 08 09.6 17.8 V 703 – Catalina Sky Survey MPS 150795
2005 11 21.46605 04 52 47.37 +16 07 50.7 17.9 R 644 – Palomar Mountain/NEAT MPS 152166
2005 11 21.49866 04 52 45.56 +16 07 35.1 18.0 R 644 – Palomar Mountain/NEAT MPS 152166
2005 11 21.53218 04 52 43.70 +16 07 19.4 18.1 R 644 – Palomar Mountain/NEAT MPS 152166
2005 11 25.32687 04 49 15.16 +15 38 05.0 17.7 V 703 – Catalina Sky Survey MPS 152166
2005 11 25.33719 04 49 14.59 +15 38 00.6 17.7 V 703 – Catalina Sky Survey MPS 152166
2005 11 25.34742 04 49 13.94 +15 37 56.0 17.6 V 703 – Catalina Sky Survey MPS 152166
2005 11 25.35762 04 49 13.36 +15 37 51.7 17.7 V 703 – Catalina Sky Survey MPS 152166
2005 11 28.37374 04 46 21.64 +15 15 08.6 17.5 V 703 – Catalina Sky Survey MPS 152166
2005 11 28.38284 04 46 21.10 +15 15 04.5 17.6 V 703 – Catalina Sky Survey MPS 152166
2005 11 28.39192 04 46 20.56 +15 15 00.4 17.5 V 703 – Catalina Sky Survey MPS 152166
2005 11 28.40102 04 46 19.99 +15 14 53.6 17.2 V 703 – Catalina Sky Survey MPS 152166
2005 11 30.26171 04 44 33.13 +15 01 15.6 18.2   704 – Lincoln Laboratory ETS, New Mexico MPS 152166
2005 11 30.27584 04 44 32.25 +15 01 10.0 18.6   704 – Lincoln Laboratory ETS, New Mexico MPS 152166
2005 11 30.28861 04 44 31.51 +15 01 04.3 18.5   704 – Lincoln Laboratory ETS, New Mexico MPS 152166
2005 11 30.30126 04 44 30.77 +15 00 58.9 18.5   704 – Lincoln Laboratory ETS, New Mexico MPS 152166
2005 11 30.31402 04 44 29.98 +15 00 53.5 19.5   704 – Lincoln Laboratory ETS, New Mexico MPS 152166
2005 12 07.26487 04 37 52.51 +14 12 47.2 18.2   704 – Lincoln Laboratory ETS, New Mexico MPS 153730
2005 12 07.27871 04 37 51.71 +14 12 42.4 18.1   704 – Lincoln Laboratory ETS, New Mexico MPS 153730
2005 12 07.29158 04 37 50.94 +14 12 36.8 18.3   704 – Lincoln Laboratory ETS, New Mexico MPS 153730
2005 12 07.30429 04 37 50.21 +14 12 32.0 18.3   704 – Lincoln Laboratory ETS, New Mexico MPS 153730
2005 12 07.31707 04 37 49.46 +14 12 27.1 18.7   704 – Lincoln Laboratory ETS, New Mexico MPS 153730
2005 12 08.26300 04 36 56.97 +14 06 21.1 18.3   704 – Lincoln Laboratory ETS, New Mexico MPS 153730
2005 12 08.27617 04 36 56.16 +14 06 15.3 18.4   704 – Lincoln Laboratory ETS, New Mexico MPS 153730
2005 12 08.28900 04 36 55.43 +14 06 10.6 18.2   704 – Lincoln Laboratory ETS, New Mexico MPS 153730
2005 12 08.30208 04 36 54.71 +14 06 05.8 18.0   704 – Lincoln Laboratory ETS, New Mexico MPS 153730
2005 12 08.31499 04 36 53.94 +14 06 00.8 18.2   704 – Lincoln Laboratory ETS, New Mexico MPS 153730
